Location: Arrien
(43.3167°N, 0.1500°W)
Time: 23:09:43
(UTC+00:00)

Cosmos 1607 - Pass Details

Date: 15 October 2021
Orbit: 918 x 984 km, 65.0° (Epoch: 04 December)

Event Time Altitude Azimuth Distance (km) Brightness Sun altitude
Rises 19:07:47 0° 324° (NW) 3,657 7.7 -20.8°
Reaches altitude 10° 19:10:23 10° 323° (NW) 2,697 6.9 -21.3°
Maximum altitude 19:16:39 74° 240° (WSW) 984 4.1 -22.4°
Enters shadow 19:20:30 24° 159° (SSE) 1,825 5.1 -23.1°
